Flag for Germany Weather past 2 weeks in Reutlingen, Baden-Württemberg, Germany

Now
55 °F

Sprinkles. Broken clouds.


Feels Like: 53 °F
Forecast: 41 / 58 °F
Wind: 10 mph from Northwest

Location: Stuttgart-Echterdingen

Current Time: May 25, 2015 at 8:27:56 PM

Latest Report: May 25, 2015 at 7:50 PM


Visibility: N/A

Pressure: 29.95 "Hg

Humidity: 94%

Dew point: 54 °F

Location of ReutlingenLocation

Historic Weather in Reutlingen — Graph

°F

Reutlingen temperature yesterday

Maximum temperature yesterday: 64 °F (at 11:20 AM)
Minimum temperature yesterday: 55 °F (at 4:50 AM)
Average temperature yesterday: 60 °F

Past Weeks' High & Low Weather Summary

 TemperatureHumidityPressure
High84 °F (May 12, 2:20 PM)100% (May 15, 4:20 AM)30.33 "Hg (May 15, 4:20 AM)
Low37 °F (May 22, 5:50 AM)25% (May 18, 6:20 PM)29.74 "Hg (May 18, 6:20 PM)
Average58 °F68%30.07 "Hg
* Reported May 10 7:20 PM — May 25 7:20 PM, Reutlingen, Weather by CustomWeather, © 2015

Note: Actual official high and low records may vary slightly from our data, if they occured in-between our weather recording intervals... More about our weather records

Advertising

Reutlingen weather history for previous 24 hours

 ConditionsComfort  
Time TempWeatherWind HumidityBarometerVisibility
7:20 PM
Mon, May 25
55 °FSprinkles. Broken clouds.6 mph94%29.95 "HgN/A
6:50 PM54 °FSprinkles. Partly sunny.7 mph94%29.95 "Hg3 mi
6:20 PM57 °FSprinkles. Broken clouds.8 mph94%29.92 "HgN/A
5:50 PM57 °FBroken clouds.8 mph88%29.92 "HgN/A
5:20 PM57 °FBroken clouds.6 mph94%29.92 "HgN/A
4:50 PM57 °FSprinkles. Broken clouds.7 mph88%29.92 "HgN/A
4:20 PM57 °FSprinkles. Broken clouds.6 mph88%29.92 "HgN/A
3:50 PM61 °FSprinkles. Broken clouds.2 mph83%29.92 "HgN/A
3:20 PM61 °FBroken clouds.1 mph77%29.92 "HgN/A
2:50 PM59 °FBroken clouds.2 mph82%29.95 "HgN/A
2:20 PM57 °FSprinkles. Broken clouds.9 mph94%29.95 "HgN/A
1:50 PM61 °FSprinkles. Broken clouds.5 mph72%29.95 "HgN/A
1:20 PM61 °FSprinkles. Broken clouds.5 mph72%29.95 "HgN/A
12:50 PM59 °FSprinkles. Broken clouds.9 mph82%29.95 "HgN/A
12:20 PM57 °FRain showers. Broken clouds.7 mph82%29.95 "HgN/A
11:50 AM64 °FSprinkles. Broken clouds.1 mph64%29.95 "HgN/A
11:20 AM66 °FBroken clouds.2 mph60%29.98 "HgN/A
10:50 AM64 °FBroken clouds.2 mph64%29.98 "HgN/A
10:20 AM61 °FPartly sunny.2 mph68%29.98 "HgN/A
9:50 AM61 °FPartly sunny.2 mph63%29.98 "HgN/A
9:20 AM59 °FPartly sunny.2 mph68%30.01 "HgN/A
8:50 AM59 °FPartly sunny.1 mph68%30.01 "HgN/A
8:20 AM57 °FPartly sunny.2 mph72%29.98 "HgN/A
7:50 AM57 °FBroken clouds.2 mph77%29.98 "HgN/A
7:20 AM55 °FPartly sunny.2 mph77%30.01 "HgN/A
6:50 AM55 °FBroken clouds.1 mph77%30.01 "HgN/A
6:20 AM54 °FClear.2 mph82%30.01 "Hg10 mi
5:50 AM54 °FClear.2 mph88%30.01 "Hg10 mi
5:20 AM55 °FClear.1 mph77%30.01 "Hg10 mi
4:50 AM55 °FClear.2 mph77%30.01 "Hg10 mi
4:20 AM55 °FClear.1 mph77%30.01 "Hg10 mi
3:50 AM55 °FClear.1 mph77%30.01 "Hg10 mi
3:20 AM55 °FClear.1 mph82%30.01 "Hg10 mi
2:50 AM55 °FClear.1 mph77%30.01 "Hg10 mi
2:20 AM55 °FClear.1 mph77%30.01 "Hg10 mi
1:50 AM55 °FClear.1 mph82%30.04 "Hg10 mi
1:20 AM55 °FClear.1 mph82%30.04 "Hg10 mi
12:50 AM55 °FClear.2 mph82%30.04 "Hg10 mi
12:20 AM57 °FClear.No wind77%30.04 "Hg10 mi
11:20 PM
Sun, May 24
57 °FClear.1 mph77%30.04 "Hg10 mi
10:50 PM57 °FClear.1 mph77%30.07 "Hg10 mi
10:20 PM59 °FClear.2 mph72%30.07 "Hg10 mi
9:50 PM59 °FSunny.1 mph72%30.04 "Hg10 mi
9:20 PM59 °FSunny.2 mph72%30.04 "Hg10 mi
8:50 PM59 °FSunny.3 mph77%30.04 "Hg10 mi
8:20 PM61 °FSunny.5 mph68%30.04 "Hg10 mi
Weather by CustomWeather, © 2015

See weather overviewHow to use our weather pages